Voltar ao catálogo

CZ-6A DEB

AtivoPO
NORAD 54286·DEBRIS·🇨🇳 China

Lançado Nov 11, 2022 de Taiyuan Satellite Launch Center

Loading…

Próximas Passagens (próximas 24 horas)

TLE

AtualizadoSource: Space-Track

Época: Sep 13, 2026, 17:06 UTC

1 54286U 22151AD  26256.71297801  .00011268  00000-0  11904-2 0  9997
2 54286  98.5951 352.4977 0073406 259.9838  99.3086 14.87442514204556

Acompanhe CZ-6A DEB em tempo real com AllMySat

Download on the App Store